Other Public Products
Issued by NWS Charleston, SC

Current Version | Previous Version | Text Only | Print | Product List | Glossary Off
Versions: 1 2 3 4 5 6 7 8 9 10 11 12 13 14 15 16 17 18 19 20 21 22 23 24 25 26 27 28 29 30 31 32 33 34 35 36 37 38 39 40 41 42 43 44 45 46 47 48 49 50

937
FPUS82 KCHS 280427
OPUCHS

TEST...KCHS/KSAV Gateway Observations...TEST
National Weather Service Charleston SC
1200 AM EDT SUN MAY 28 2017

NOTE: "fair" indicates few or no clouds below 12,000 feet with no
significant weather and/or obstructions to visibility.

SCZ050-WAZ558-NCZ071-TXZ119-213-PAZ071-DCZ001-FLZ074-172-MI076-
NYZ176-178-MAZ016-IL014-TNZ027-NJZ106-GAZ044-MD014-280500-

...Gateway Observations for Charleston International...

CITY           SKY/WX    TMP DP  RH WIND       PRES   REMARKS
Chas Airport   PTCLDY    74  69  85 SW5       29.95S
Seattle        CLEAR     75  49  39 N7        30.04S
Charlotte      CLOUDY    74  65  73 S5        29.92R
Dallas DFW     CLEAR     87  75  67 S17G24    29.74R HX  96
Dallas Love    PTCLDY    86  74  67 S14       29.76R HX  94
Philladelphia  CLOUDY    65  59  81 SW8       29.92R
Wash National  CLOUDY    66  62  87 NE6       29.92S
Baltimore      PTCLDY    63  61  93 CALM      29.91F
Miami          PTCLDY    84  72  67 W6        30.02F
Detroit        CLOUDY    63  53  70 CALM      29.88F
Newark         MOCLDY    62  57  83 CALM      29.92S
Laguardia      CLOUDY    62  56  80 SE5       29.92S
J F K          MOCLDY    61  59  93 E6        29.93S
Boston Logan   MOCLDY    54  50  86 SE8       29.94S
Ft. Lauderdale PTCLDY    84  76  76 SE3       30.01F HX  93
Chicago O`Hare CLOUDY    64  53  67 E6        29.84S
Chicago Midway CLOUDY    62  52  69 E3        29.84F
Houston Bush   CLOUDY    81  74  79 S14       29.87S
Houston Hobby  MOCLDY    79  76  90 S8        29.88S
Nashville      CLOUDY    66  63  90 CALM      29.94R
Atlanta        CLOUDY    74  70  87 SW3       29.99R

$$

GAZ044-118-TXZ119-213-NCZ071-DCZ001-MDZ014-506-PAZ021-071-NJZ106-
NYZ176-178-MAZ106-OHZ011-021-055-MIZ076-KYZ091-ILZ014-INZ047-
MNZ060-ONZ431-280500-

...Gateway Observations for Savannah International...

CITY           SKY/WX    TMP DP  RH WIND       PRES   REMARKS
Savannah Arpt  PTCLDY    73  65  75 CALM      29.97F
Atlanta        CLOUDY    74  70  87 SW3       29.99R
Charlotte      CLOUDY    74  65  73 S5        29.92R
Dallas DFW     CLEAR     87  75  67 S17G24    29.74R HX  96
Houston Bush   CLOUDY    81  74  79 S14       29.87S
Wash National  CLOUDY    66  62  87 NE6       29.92S
Wash Dulles    CLOUDY    64  61  90 CALM      29.92S
Baltimore      PTCLDY    63  61  93 CALM      29.91F
Philadelphia   CLOUDY    65  59  81 SW8       29.92R
Newark         MOCLDY    62  57  83 CALM      29.92S
Laguardia      CLOUDY    62  56  80 SE5       29.92S
J F K          MOCLDY    61  59  93 E6        29.93S
Boston         MOCLDY    54  50  86 SE8       29.94S
Pittsburg      PTCLDY    62  61  96 CALM      29.89F
Akron          PTCLDY    60  52  74 NE6       29.89F
Cleveland      MOCLDY    66  51  58 E7        29.89F
Cincinnati     CLOUDY    69  64  84 S9        29.84F
Columbus       CLOUDY    68  67  94 CALM      29.82F
Detroit        CLOUDY    63  53  70 CALM      29.88F
Chicago O`Hare CLOUDY    64  53  67 E6        29.84S
Minneapolis    MOCLDY    67  46  47 SW9       29.83F
Indianapolis   CLOUDY    69  62  78 NE3       29.83S
Toronto Canada MOCLDY    57  54  88 S3        29.92R

$$




USA.gov is the U.S. government's official web portal to all federal, state and local government web resources and services.